Year,Month,Day,Hour,Minute,Value (Times are PST for temperature in C)
2020,04,14,00,00,7.80
2020,04,14,00,01,7.80
2020,04,14,00,02,7.80
2020,04,14,00,03,7.80
2020,04,14,00,04,7.80
2020,04,14,00,05,7.80
2020,04,14,00,06,7.80
2020,04,14,00,07,7.80
2020,04,14,00,08,7.80
2020,04,14,00,09,7.80
2020,04,14,00,10,7.80
2020,04,14,00,11,7.80
2020,04,14,00,12,7.80
2020,04,14,00,13,7.80
2020,04,14,00,14,7.80
2020,04,14,00,15,7.80
2020,04,14,00,16,7.80
2020,04,14,00,17,7.80
2020,04,14,00,18,7.80
2020,04,14,00,19,7.90
2020,04,14,00,20,7.90
2020,04,14,00,21,7.90
2020,04,14,00,22,7.90
2020,04,14,00,23,7.90
2020,04,14,00,24,7.90
2020,04,14,00,25,7.90
2020,04,14,00,26,7.90
2020,04,14,00,27,7.80
2020,04,14,00,28,7.80
2020,04,14,00,29,7.80
2020,04,14,00,30,7.90
2020,04,14,00,31,7.90
2020,04,14,00,32,7.80
2020,04,14,00,33,7.80
2020,04,14,00,34,7.80
2020,04,14,00,35,7.80
2020,04,14,00,36,7.80
2020,04,14,00,37,7.80
2020,04,14,00,38,7.80
2020,04,14,00,39,7.80
2020,04,14,00,40,7.80
2020,04,14,00,41,7.80
2020,04,14,00,42,7.80
2020,04,14,00,43,7.80
2020,04,14,00,44,7.80
2020,04,14,00,45,7.80
2020,04,14,00,46,7.80
2020,04,14,00,47,7.80
2020,04,14,00,48,7.80
2020,04,14,00,49,7.80
2020,04,14,00,50,7.80
2020,04,14,00,51,7.80
2020,04,14,00,52,7.80
2020,04,14,00,53,7.80
2020,04,14,00,54,7.70
2020,04,14,00,55,7.70
2020,04,14,00,56,7.80
2020,04,14,00,57,7.80
2020,04,14,00,58,7.80
2020,04,14,00,59,7.80
2020,04,14,01,00,7.80
2020,04,14,01,01,7.80
2020,04,14,01,02,7.80
2020,04,14,01,03,7.90
2020,04,14,01,04,7.90
2020,04,14,01,05,7.90
2020,04,14,01,06,8.00
2020,04,14,01,07,8.10
2020,04,14,01,08,8.30
2020,04,14,01,09,8.60
2020,04,14,01,10,8.90
2020,04,14,01,11,9.30
2020,04,14,01,12,9.80
2020,04,14,01,13,10.30
2020,04,14,01,14,10.60
2020,04,14,01,15,10.90
2020,04,14,01,16,11.10
2020,04,14,01,17,11.20
2020,04,14,01,18,11.40
2020,04,14,01,19,11.50
2020,04,14,01,20,11.60
2020,04,14,01,21,11.70
2020,04,14,01,22,11.80
2020,04,14,01,23,11.80
2020,04,14,01,24,11.90
2020,04,14,01,25,12.00
2020,04,14,01,26,12.00
2020,04,14,01,27,12.10
2020,04,14,01,28,12.10
2020,04,14,01,29,12.20
2020,04,14,01,30,12.20
2020,04,14,01,31,12.20
2020,04,14,01,32,12.30
2020,04,14,01,33,12.30
2020,04,14,01,34,12.30
2020,04,14,01,35,12.30
2020,04,14,01,36,12.30
2020,04,14,01,37,12.30
2020,04,14,01,38,12.30
2020,04,14,01,39,12.30
2020,04,14,01,40,12.30
2020,04,14,01,41,12.20
2020,04,14,01,42,12.20
2020,04,14,01,43,12.20
2020,04,14,01,44,12.20
2020,04,14,01,45,12.20
2020,04,14,01,46,12.20
2020,04,14,01,47,12.10
2020,04,14,01,48,12.10
2020,04,14,01,49,12.10
2020,04,14,01,50,12.10
2020,04,14,01,51,12.10
2020,04,14,01,52,12.00
2020,04,14,01,53,12.00
2020,04,14,01,54,12.00
2020,04,14,01,55,11.90
2020,04,14,01,56,11.90
2020,04,14,01,57,11.90
2020,04,14,01,58,11.90
2020,04,14,01,59,11.90
2020,04,14,02,00,11.90
2020,04,14,02,01,11.90
2020,04,14,02,02,11.90
2020,04,14,02,03,11.90
2020,04,14,02,04,11.90
2020,04,14,02,05,11.90
2020,04,14,02,06,11.90
2020,04,14,02,07,11.90
2020,04,14,02,08,11.90
2020,04,14,02,09,11.90
2020,04,14,02,10,11.90
2020,04,14,02,11,11.90
2020,04,14,02,12,11.90
2020,04,14,02,13,11.90
2020,04,14,02,14,11.90
2020,04,14,02,15,11.90
2020,04,14,02,16,11.90
2020,04,14,02,17,12.00
2020,04,14,02,18,12.00
2020,04,14,02,19,12.00
2020,04,14,02,20,12.00
2020,04,14,02,21,12.00
2020,04,14,02,22,12.00
2020,04,14,02,23,12.00
2020,04,14,02,24,12.00
2020,04,14,02,25,12.00
2020,04,14,02,26,12.00
2020,04,14,02,27,12.00
2020,04,14,02,28,12.00
2020,04,14,02,29,12.00
2020,04,14,02,30,12.00
2020,04,14,02,31,12.00
2020,04,14,02,32,12.00
2020,04,14,02,33,12.00
2020,04,14,02,34,12.00
2020,04,14,02,35,11.90
2020,04,14,02,36,11.90
2020,04,14,02,37,11.90
2020,04,14,02,38,11.90
2020,04,14,02,39,11.90
2020,04,14,02,40,11.90
2020,04,14,02,41,11.90
2020,04,14,02,42,11.90
2020,04,14,02,43,11.90
2020,04,14,02,44,11.90
2020,04,14,02,45,11.90
2020,04,14,02,46,11.80
2020,04,14,02,47,11.80
2020,04,14,02,48,11.80
2020,04,14,02,49,11.80
2020,04,14,02,50,11.80
2020,04,14,02,51,11.80
2020,04,14,02,52,11.80
2020,04,14,02,53,11.80
2020,04,14,02,54,11.80
2020,04,14,02,55,11.70
2020,04,14,02,56,11.70
2020,04,14,02,57,11.70
2020,04,14,02,58,11.70
2020,04,14,02,59,11.70
2020,04,14,03,00,11.70
2020,04,14,03,01,11.70
2020,04,14,03,02,11.70
2020,04,14,03,03,11.70
2020,04,14,03,04,11.70
2020,04,14,03,05,11.70
2020,04,14,03,06,11.70
2020,04,14,03,07,11.70
2020,04,14,03,08,11.70
2020,04,14,03,09,11.70
2020,04,14,03,10,11.70
2020,04,14,03,11,11.70
2020,04,14,03,12,11.70
2020,04,14,03,13,11.60
2020,04,14,03,14,11.60
2020,04,14,03,15,11.60
2020,04,14,03,16,11.60
2020,04,14,03,17,11.60
2020,04,14,03,18,11.60
2020,04,14,03,19,11.50
2020,04,14,03,20,11.50
2020,04,14,03,21,11.50
2020,04,14,03,22,11.40
2020,04,14,03,23,11.40
2020,04,14,03,24,11.40
2020,04,14,03,25,11.40
2020,04,14,03,26,11.30
2020,04,14,03,27,11.30
2020,04,14,03,28,11.30
2020,04,14,03,29,11.30
2020,04,14,03,30,11.30
2020,04,14,03,31,11.30
2020,04,14,03,32,11.30
2020,04,14,03,33,11.30
2020,04,14,03,34,11.30
2020,04,14,03,35,11.30
2020,04,14,03,36,11.30
2020,04,14,03,37,11.30
2020,04,14,03,38,11.30
2020,04,14,03,39,11.30
2020,04,14,03,40,11.30
2020,04,14,03,41,11.30
2020,04,14,03,42,11.30
2020,04,14,03,43,11.20
2020,04,14,03,44,11.20
2020,04,14,03,45,11.20
2020,04,14,03,46,11.20
2020,04,14,03,47,11.20
2020,04,14,03,48,11.20
2020,04,14,03,49,11.20
2020,04,14,03,50,11.20
2020,04,14,03,51,11.20
2020,04,14,03,52,11.20
2020,04,14,03,53,11.20
2020,04,14,03,54,11.20
2020,04,14,03,55,11.20
2020,04,14,03,56,11.20
2020,04,14,03,57,11.20
2020,04,14,03,58,11.30
2020,04,14,03,59,11.30
2020,04,14,04,00,11.30
2020,04,14,04,01,11.30
2020,04,14,04,02,11.30
2020,04,14,04,03,11.30
2020,04,14,04,04,11.30
2020,04,14,04,05,11.30
2020,04,14,04,06,11.30
2020,04,14,04,07,11.30
2020,04,14,04,08,11.30
2020,04,14,04,09,11.40
2020,04,14,04,10,11.40
2020,04,14,04,11,11.40
2020,04,14,04,12,11.30
2020,04,14,04,13,11.30
2020,04,14,04,14,11.30
2020,04,14,04,15,11.30
2020,04,14,04,16,11.30
2020,04,14,04,17,11.30
2020,04,14,04,18,11.30
2020,04,14,04,19,11.30
2020,04,14,04,20,11.30
2020,04,14,04,21,11.30
2020,04,14,04,22,11.30
2020,04,14,04,23,11.30
2020,04,14,04,24,11.30
2020,04,14,04,25,11.30
2020,04,14,04,26,11.30
2020,04,14,04,27,11.30
2020,04,14,04,28,11.40
2020,04,14,04,29,11.40
2020,04,14,04,30,11.40
2020,04,14,04,31,11.30
2020,04,14,04,32,11.30
2020,04,14,04,33,11.30
2020,04,14,04,34,11.30
2020,04,14,04,35,11.30
2020,04,14,04,36,11.30
2020,04,14,04,37,11.30
2020,04,14,04,38,11.30
2020,04,14,04,39,11.30
2020,04,14,04,40,11.30
2020,04,14,04,41,11.30
2020,04,14,04,42,11.30
2020,04,14,04,43,11.30
2020,04,14,04,44,11.30
2020,04,14,04,45,11.20
2020,04,14,04,46,11.20
2020,04,14,04,47,11.20
2020,04,14,04,48,11.20
2020,04,14,04,49,11.20
2020,04,14,04,50,11.20
2020,04,14,04,51,11.20
2020,04,14,04,52,11.20
2020,04,14,04,53,11.20
2020,04,14,04,54,11.20
2020,04,14,04,55,11.20
2020,04,14,04,56,11.20
2020,04,14,04,57,11.20
2020,04,14,04,58,11.20
2020,04,14,04,59,11.20
2020,04,14,05,00,11.20
2020,04,14,05,01,11.20
2020,04,14,05,02,11.20
2020,04,14,05,03,11.20
2020,04,14,05,04,11.20
2020,04,14,05,05,11.20
2020,04,14,05,06,11.20
2020,04,14,05,07,11.20
2020,04,14,05,08,11.20
2020,04,14,05,09,11.20
2020,04,14,05,10,11.20
2020,04,14,05,11,11.20
2020,04,14,05,12,11.20
2020,04,14,05,13,11.30
2020,04,14,05,14,11.30
2020,04,14,05,15,11.20
2020,04,14,05,16,11.20
2020,04,14,05,17,11.20
2020,04,14,05,18,11.20
2020,04,14,05,19,11.20
2020,04,14,05,20,11.20
2020,04,14,05,21,11.20
2020,04,14,05,22,11.20
2020,04,14,05,23,11.10
2020,04,14,05,24,11.10
2020,04,14,05,25,11.10
2020,04,14,05,26,11.10
2020,04,14,05,27,11.10
2020,04,14,05,28,11.00
2020,04,14,05,29,11.00
2020,04,14,05,30,11.00
2020,04,14,05,31,10.90
2020,04,14,05,32,10.90
2020,04,14,05,33,10.90
2020,04,14,05,34,10.80
2020,04,14,05,35,10.80
2020,04,14,05,36,10.80
2020,04,14,05,37,10.70
2020,04,14,05,38,10.70
2020,04,14,05,39,10.70
2020,04,14,05,40,10.60
2020,04,14,05,41,10.60
2020,04,14,05,42,10.60
2020,04,14,05,43,10.50
2020,04,14,05,44,10.50
2020,04,14,05,45,10.40
2020,04,14,05,46,10.40
2020,04,14,05,47,10.40
2020,04,14,05,48,10.30
2020,04,14,05,49,10.30
2020,04,14,05,50,10.30
2020,04,14,05,51,10.20
2020,04,14,05,52,10.20
2020,04,14,05,53,10.20
2020,04,14,05,54,10.20
2020,04,14,05,55,10.20
2020,04,14,05,56,10.10
2020,04,14,05,57,10.10
2020,04,14,05,58,10.10
2020,04,14,05,59,10.10
2020,04,14,06,00,10.10
2020,04,14,06,01,10.10
2020,04,14,06,02,10.10
2020,04,14,06,03,10.10
2020,04,14,06,04,10.10
2020,04,14,06,05,10.10
2020,04,14,06,06,10.10
2020,04,14,06,07,10.00
2020,04,14,06,08,10.00
2020,04,14,06,09,10.00
2020,04,14,06,10,10.00
2020,04,14,06,11,10.00
2020,04,14,06,12,10.00
2020,04,14,06,13,10.00
2020,04,14,06,14,10.00
2020,04,14,06,15,10.00
2020,04,14,06,16,10.00
2020,04,14,06,17,10.00
2020,04,14,06,18,10.00
2020,04,14,06,19,10.00
2020,04,14,06,20,10.00
2020,04,14,06,21,10.00
2020,04,14,06,22,10.00
2020,04,14,06,23,10.00
2020,04,14,06,24,9.90
2020,04,14,06,25,9.90
2020,04,14,06,26,9.90
2020,04,14,06,27,9.80
2020,04,14,06,28,9.80
2020,04,14,06,29,9.80
2020,04,14,06,30,9.80
2020,04,14,06,31,9.70
2020,04,14,06,32,9.70
2020,04,14,06,33,9.70
2020,04,14,06,34,9.70
2020,04,14,06,35,9.60
2020,04,14,06,36,9.60
2020,04,14,06,37,9.60
2020,04,14,06,38,9.50
2020,04,14,06,39,9.50
2020,04,14,06,40,9.50
2020,04,14,06,41,9.40
2020,04,14,06,42,9.40
2020,04,14,06,43,9.40
2020,04,14,06,44,9.40
2020,04,14,06,45,9.40
2020,04,14,06,46,9.40
2020,04,14,06,47,9.40
2020,04,14,06,48,9.40
2020,04,14,06,49,9.40
2020,04,14,06,50,9.30
2020,04,14,06,51,9.30
2020,04,14,06,52,9.30
2020,04,14,06,53,9.30
2020,04,14,06,54,9.30
2020,04,14,06,55,9.30
2020,04,14,06,56,9.30
2020,04,14,06,57,9.30
2020,04,14,06,58,9.30
2020,04,14,06,59,9.30
2020,04,14,07,00,9.20
2020,04,14,07,01,9.20
2020,04,14,07,02,9.20
2020,04,14,07,03,9.20
2020,04,14,07,04,9.20
2020,04,14,07,05,9.10
2020,04,14,07,06,9.10
2020,04,14,07,07,9.10
2020,04,14,07,08,9.00
2020,04,14,07,09,8.90
2020,04,14,07,10,8.90
2020,04,14,07,11,8.90
2020,04,14,07,12,8.80
2020,04,14,07,13,8.80
2020,04,14,07,14,8.80
2020,04,14,07,15,8.80
2020,04,14,07,16,8.80
2020,04,14,07,17,8.80
2020,04,14,07,18,8.80
2020,04,14,07,19,8.80
2020,04,14,07,20,8.80
2020,04,14,07,21,8.80
2020,04,14,07,22,8.80
2020,04,14,07,23,8.80
2020,04,14,07,24,8.80
2020,04,14,07,25,8.80
2020,04,14,07,26,8.80
2020,04,14,07,27,8.80
2020,04,14,07,28,8.80
2020,04,14,07,29,8.90
2020,04,14,07,30,8.90
2020,04,14,07,31,8.90
2020,04,14,07,32,8.90
2020,04,14,07,33,8.90
2020,04,14,07,34,8.90
2020,04,14,07,35,8.90
2020,04,14,07,36,8.90
2020,04,14,07,37,8.90
2020,04,14,07,38,9.00
2020,04,14,07,39,9.00
2020,04,14,07,40,9.10
2020,04,14,07,41,9.10
2020,04,14,07,42,9.10
2020,04,14,07,43,9.20
2020,04,14,07,44,9.30
2020,04,14,07,45,9.30
2020,04,14,07,46,9.40
2020,04,14,07,47,9.40
2020,04,14,07,48,9.50
2020,04,14,07,49,9.60
2020,04,14,07,50,9.70
2020,04,14,07,51,9.70
2020,04,14,07,52,9.80
2020,04,14,07,53,9.80
2020,04,14,07,54,10.00
2020,04,14,07,55,10.20
2020,04,14,07,56,10.30
2020,04,14,07,57,10.50
2020,04,14,07,58,10.60
2020,04,14,07,59,10.60
2020,04,14,08,00,10.50
2020,04,14,08,01,10.40
2020,04,14,08,02,10.40
2020,04,14,08,03,10.30
2020,04,14,08,04,10.30
2020,04,14,08,05,10.30
2020,04,14,08,06,10.20
2020,04,14,08,07,10.20
2020,04,14,08,08,10.20
2020,04,14,08,09,10.20
2020,04,14,08,10,10.20
2020,04,14,08,11,10.30
2020,04,14,08,12,10.30
2020,04,14,08,13,10.40
2020,04,14,08,14,10.50
2020,04,14,08,15,10.60
2020,04,14,08,16,10.70
2020,04,14,08,17,10.70
2020,04,14,08,18,10.80
2020,04,14,08,19,10.90
2020,04,14,08,20,11.00
2020,04,14,08,21,11.00
2020,04,14,08,22,11.10
2020,04,14,08,23,11.10
2020,04,14,08,24,11.10
2020,04,14,08,25,11.10
2020,04,14,08,26,11.10
2020,04,14,08,27,11.10
2020,04,14,08,28,11.10
2020,04,14,08,29,11.10
2020,04,14,08,30,11.10
2020,04,14,08,31,11.20
2020,04,14,08,32,11.20
2020,04,14,08,33,11.30
2020,04,14,08,34,11.40
2020,04,14,08,35,11.50
2020,04,14,08,36,11.60
2020,04,14,08,37,11.60
2020,04,14,08,38,11.70
2020,04,14,08,39,11.80
2020,04,14,08,40,11.80
2020,04,14,08,41,11.90
2020,04,14,08,42,11.90
2020,04,14,08,43,11.90
2020,04,14,08,44,11.90
2020,04,14,08,45,11.90
2020,04,14,08,46,12.00
2020,04,14,08,47,12.00
2020,04,14,08,48,12.00
2020,04,14,08,49,12.10
2020,04,14,08,50,12.10
2020,04,14,08,51,12.20
2020,04,14,08,52,12.20
2020,04,14,08,53,12.20
2020,04,14,08,54,12.20
2020,04,14,08,55,12.30
2020,04,14,08,56,12.20
2020,04,14,08,57,12.20
2020,04,14,08,58,12.30
2020,04,14,08,59,12.30
2020,04,14,09,00,12.30
2020,04,14,09,01,12.30
2020,04,14,09,02,12.30
2020,04,14,09,03,12.30
2020,04,14,09,04,12.20
2020,04,14,09,05,12.20
2020,04,14,09,06,12.20
2020,04,14,09,07,12.20
2020,04,14,09,08,12.20
2020,04,14,09,09,12.20
2020,04,14,09,10,12.20
2020,04,14,09,11,12.20
2020,04,14,09,12,12.20
2020,04,14,09,13,12.20
2020,04,14,09,14,12.10
2020,04,14,09,15,12.10
2020,04,14,09,16,12.10
2020,04,14,09,17,12.10
2020,04,14,09,18,12.10
2020,04,14,09,19,12.00
2020,04,14,09,20,12.00
2020,04,14,09,21,12.00
2020,04,14,09,22,12.00
2020,04,14,09,23,12.00
2020,04,14,09,24,12.00
2020,04,14,09,25,12.00
2020,04,14,09,26,12.00
2020,04,14,09,27,12.00
2020,04,14,09,28,12.00
2020,04,14,09,29,11.90
2020,04,14,09,30,11.90
2020,04,14,09,31,11.90
2020,04,14,09,32,11.90
2020,04,14,09,33,11.90
2020,04,14,09,34,11.90
2020,04,14,09,35,11.90
2020,04,14,09,36,11.90
2020,04,14,09,37,11.90
2020,04,14,09,38,11.90
2020,04,14,09,39,11.90
2020,04,14,09,40,11.90
2020,04,14,09,41,11.90
2020,04,14,09,42,11.90
2020,04,14,09,43,11.90
2020,04,14,09,44,11.90
2020,04,14,09,45,11.90
2020,04,14,09,46,12.00
2020,04,14,09,47,12.00
2020,04,14,09,48,12.10
2020,04,14,09,49,12.10
2020,04,14,09,50,12.20
2020,04,14,09,51,12.20
2020,04,14,09,52,12.20
2020,04,14,09,53,12.20
2020,04,14,09,54,12.30
2020,04,14,09,55,12.30
2020,04,14,09,56,12.30
2020,04,14,09,57,12.30
2020,04,14,09,58,12.30
2020,04,14,09,59,12.30
2020,04,14,10,00,12.30
2020,04,14,10,01,12.30
2020,04,14,10,02,12.30
2020,04,14,10,03,12.30
2020,04,14,10,04,12.30
2020,04,14,10,05,12.30
2020,04,14,10,06,12.30
2020,04,14,10,07,12.30
2020,04,14,10,08,12.30
2020,04,14,10,09,12.30
2020,04,14,10,10,12.30
2020,04,14,10,11,12.30
2020,04,14,10,12,12.30
2020,04,14,10,13,12.30
2020,04,14,10,14,12.40
2020,04,14,10,15,12.40
2020,04,14,10,16,12.50
2020,04,14,10,17,12.50
2020,04,14,10,18,12.40
2020,04,14,10,19,12.40
2020,04,14,10,20,12.30
2020,04,14,10,21,12.30
2020,04,14,10,22,12.30
2020,04,14,10,23,12.30
2020,04,14,10,24,12.30
2020,04,14,10,25,12.30
2020,04,14,10,26,12.30
2020,04,14,10,27,12.30
2020,04,14,10,28,12.20
2020,04,14,10,29,12.20
2020,04,14,10,30,12.10
2020,04,14,10,31,12.10
2020,04,14,10,32,12.10
2020,04,14,10,33,12.00
2020,04,14,10,34,12.00
2020,04,14,10,35,12.00
2020,04,14,10,36,12.00
2020,04,14,10,37,11.90
2020,04,14,10,38,12.00
2020,04,14,10,39,12.00
2020,04,14,10,40,12.10
2020,04,14,10,41,12.10
2020,04,14,10,42,12.20
2020,04,14,10,43,12.20
2020,04,14,10,44,12.20
2020,04,14,10,45,12.20
2020,04,14,10,46,12.20
2020,04,14,10,47,12.20
2020,04,14,10,48,12.20
2020,04,14,10,49,12.20
2020,04,14,10,50,12.30
2020,04,14,10,51,12.30
2020,04,14,10,52,12.30
2020,04,14,10,53,12.30
2020,04,14,10,54,12.20
2020,04,14,10,55,12.20
2020,04,14,10,56,12.20
2020,04,14,10,57,12.30
2020,04,14,10,58,12.30
2020,04,14,10,59,12.30
2020,04,14,11,00,12.30
2020,04,14,11,01,12.30
2020,04,14,11,02,12.30
2020,04,14,11,03,12.30
2020,04,14,11,04,12.30
2020,04,14,11,05,12.30
2020,04,14,11,06,12.30
2020,04,14,11,07,12.30
2020,04,14,11,08,12.40
2020,04,14,11,09,12.50
2020,04,14,11,10,12.50
2020,04,14,11,11,12.60
2020,04,14,11,12,12.70
2020,04,14,11,13,12.70
2020,04,14,11,14,12.80
2020,04,14,11,15,12.80
2020,04,14,11,16,12.80
2020,04,14,11,17,12.70
2020,04,14,11,18,12.70
2020,04,14,11,19,12.70
2020,04,14,11,20,12.70
2020,04,14,11,21,12.70
2020,04,14,11,22,12.70
2020,04,14,11,23,12.70
2020,04,14,11,24,12.70
2020,04,14,11,25,12.70
2020,04,14,11,26,12.60
2020,04,14,11,27,12.60
2020,04,14,11,28,12.50
2020,04,14,11,29,12.40
2020,04,14,11,30,12.40
2020,04,14,11,31,12.30
2020,04,14,11,32,12.30
2020,04,14,11,33,12.30
2020,04,14,11,34,12.30
2020,04,14,11,35,12.20
2020,04,14,11,36,12.10
2020,04,14,11,37,12.10
2020,04,14,11,38,12.10
2020,04,14,11,39,12.10
2020,04,14,11,40,12.20
2020,04,14,11,41,12.10
2020,04,14,11,42,12.20
2020,04,14,11,43,12.10
2020,04,14,11,44,12.00
2020,04,14,11,45,11.90
2020,04,14,11,46,11.80
2020,04,14,11,47,11.80
2020,04,14,11,48,11.80
2020,04,14,11,49,11.80
2020,04,14,11,50,11.90
2020,04,14,11,51,11.90
2020,04,14,11,52,11.90
2020,04,14,11,53,11.90
2020,04,14,11,54,11.90
2020,04,14,11,55,12.00
2020,04,14,11,56,12.00
2020,04,14,11,57,11.90
2020,04,14,11,58,11.90
2020,04,14,11,59,12.00
2020,04,14,12,00,12.00
2020,04,14,12,01,12.00
2020,04,14,12,02,12.00
2020,04,14,12,03,12.00
2020,04,14,12,04,12.00
2020,04,14,12,05,11.90
2020,04,14,12,06,11.90
2020,04,14,12,07,11.90
2020,04,14,12,08,11.80
2020,04,14,12,09,11.80
2020,04,14,12,10,11.80
2020,04,14,12,11,11.80
2020,04,14,12,12,11.80
2020,04,14,12,13,11.80
2020,04,14,12,14,11.80
2020,04,14,12,15,11.80
2020,04,14,12,16,11.80
2020,04,14,12,17,11.80
2020,04,14,12,18,11.80
2020,04,14,12,19,11.80
2020,04,14,12,20,11.80
2020,04,14,12,21,11.80
2020,04,14,12,22,11.80
2020,04,14,12,23,11.80
2020,04,14,12,24,11.80
2020,04,14,12,25,11.80
2020,04,14,12,26,11.80
2020,04,14,12,27,11.80
2020,04,14,12,28,11.80
2020,04,14,12,29,11.80
2020,04,14,12,30,11.80
2020,04,14,12,31,11.80
2020,04,14,12,32,11.80
2020,04,14,12,33,11.80
2020,04,14,12,34,11.80
2020,04,14,12,35,11.80
2020,04,14,12,36,11.80
2020,04,14,12,37,11.80
2020,04,14,12,38,11.90
2020,04,14,12,39,11.90
2020,04,14,12,40,11.80
2020,04,14,12,41,11.80
2020,04,14,12,42,11.80
2020,04,14,12,43,11.80
2020,04,14,12,44,11.80
2020,04,14,12,45,11.80
2020,04,14,12,46,11.80
2020,04,14,12,47,11.90
2020,04,14,12,48,11.90
2020,04,14,12,49,11.90
2020,04,14,12,50,12.00
2020,04,14,12,51,12.00
2020,04,14,12,52,12.10
2020,04,14,12,53,12.10
2020,04,14,12,54,12.10
2020,04,14,12,55,12.20
2020,04,14,12,56,12.20
2020,04,14,12,57,12.20
2020,04,14,12,58,12.20
2020,04,14,12,59,12.30
2020,04,14,13,00,12.30
2020,04,14,13,01,12.30
2020,04,14,13,02,12.30
2020,04,14,13,03,12.30
2020,04,14,13,04,12.30
2020,04,14,13,05,12.30
2020,04,14,13,06,12.30
2020,04,14,13,07,12.30
2020,04,14,13,08,12.20
2020,04,14,13,09,12.10
2020,04,14,13,10,12.00
2020,04,14,13,11,12.00
2020,04,14,13,12,12.00
2020,04,14,13,13,12.00
2020,04,14,13,14,12.00
2020,04,14,13,15,12.10
2020,04,14,13,16,12.20
2020,04,14,13,17,12.20
2020,04,14,13,18,12.30
2020,04,14,13,19,12.30
2020,04,14,13,20,12.30
2020,04,14,13,21,12.30
2020,04,14,13,22,12.30
2020,04,14,13,23,12.30
2020,04,14,13,24,12.30
2020,04,14,13,25,12.30
2020,04,14,13,26,12.40
2020,04,14,13,27,12.40
2020,04,14,13,28,12.40
2020,04,14,13,29,12.50
2020,04,14,13,30,12.60
2020,04,14,13,31,12.70
2020,04,14,13,32,12.80
2020,04,14,13,33,12.80
2020,04,14,13,34,12.80
2020,04,14,13,35,12.80
2020,04,14,13,36,12.90
2020,04,14,13,37,13.00
2020,04,14,13,38,13.00
2020,04,14,13,39,13.10
2020,04,14,13,40,13.20
2020,04,14,13,41,13.30
2020,04,14,13,42,13.30
2020,04,14,13,43,13.40
2020,04,14,13,44,13.40
2020,04,14,13,45,13.50
2020,04,14,13,46,13.50
2020,04,14,13,47,13.60
2020,04,14,13,48,13.60
2020,04,14,13,49,13.60
2020,04,14,13,50,13.70
2020,04,14,13,51,13.70
2020,04,14,13,52,13.80
2020,04,14,13,53,13.80
2020,04,14,13,54,13.90
2020,04,14,13,55,13.90
2020,04,14,13,56,13.90
2020,04,14,13,57,13.80
2020,04,14,13,58,13.70
2020,04,14,13,59,13.60
2020,04,14,14,00,13.50
2020,04,14,14,01,13.30
2020,04,14,14,02,13.20
2020,04,14,14,03,13.10
2020,04,14,14,04,12.90
2020,04,14,14,05,12.80
2020,04,14,14,06,12.70
2020,04,14,14,07,12.60
2020,04,14,14,08,12.60
2020,04,14,14,09,12.60
2020,04,14,14,10,12.80
2020,04,14,14,11,12.90
2020,04,14,14,12,13.00
2020,04,14,14,13,13.10
2020,04,14,14,14,13.20
2020,04,14,14,15,13.20
2020,04,14,14,16,13.30
2020,04,14,14,17,13.40
2020,04,14,14,18,13.50
2020,04,14,14,19,13.50
2020,04,14,14,20,13.60
2020,04,14,14,21,13.60
2020,04,14,14,22,13.60
2020,04,14,14,23,13.60
2020,04,14,14,24,13.70
2020,04,14,14,25,13.80
2020,04,14,14,26,13.90
2020,04,14,14,27,14.00
2020,04,14,14,28,14.00
2020,04,14,14,29,13.90
2020,04,14,14,30,13.90
2020,04,14,14,31,13.90
2020,04,14,14,32,13.90
2020,04,14,14,33,13.90
2020,04,14,14,34,13.90
2020,04,14,14,35,13.80
2020,04,14,14,36,13.80
2020,04,14,14,37,13.80
2020,04,14,14,38,13.80
2020,04,14,14,39,13.80
2020,04,14,14,40,13.70
2020,04,14,14,41,13.60
2020,04,14,14,42,13.60
2020,04,14,14,43,13.50
2020,04,14,14,44,13.40
2020,04,14,14,45,13.40
2020,04,14,14,46,13.30
2020,04,14,14,47,13.20
2020,04,14,14,48,13.10
2020,04,14,14,49,13.00
2020,04,14,14,50,12.90
2020,04,14,14,51,12.90
2020,04,14,14,52,12.80
2020,04,14,14,53,12.70
2020,04,14,14,54,12.70
2020,04,14,14,55,12.70
2020,04,14,14,56,12.70
2020,04,14,14,57,12.80
2020,04,14,14,58,12.80
2020,04,14,14,59,12.90
2020,04,14,15,00,12.90
2020,04,14,15,01,12.90
2020,04,14,15,02,12.80
2020,04,14,15,03,12.80
2020,04,14,15,04,12.80
2020,04,14,15,05,12.80
2020,04,14,15,06,12.80
2020,04,14,15,07,12.80
2020,04,14,15,08,12.70
2020,04,14,15,09,12.70
2020,04,14,15,10,12.70
2020,04,14,15,11,12.70
2020,04,14,15,12,12.70
2020,04,14,15,13,12.70
2020,04,14,15,14,12.70
2020,04,14,15,15,12.70
2020,04,14,15,16,12.70
2020,04,14,15,17,12.70
2020,04,14,15,18,12.70
2020,04,14,15,19,12.60
2020,04,14,15,20,12.60
2020,04,14,15,21,12.60
2020,04,14,15,22,12.70
2020,04,14,15,23,12.70
2020,04,14,15,24,12.80
2020,04,14,15,25,12.90
2020,04,14,15,26,12.90
2020,04,14,15,27,13.00
2020,04,14,15,28,13.00
2020,04,14,15,29,13.00
2020,04,14,15,30,13.00
2020,04,14,15,31,12.90
2020,04,14,15,32,12.90
2020,04,14,15,33,12.90
2020,04,14,15,34,12.80
2020,04,14,15,35,12.80
2020,04,14,15,36,12.80
2020,04,14,15,37,12.80
2020,04,14,15,38,12.70
2020,04,14,15,39,12.70
2020,04,14,15,40,12.70
2020,04,14,15,41,12.70
2020,04,14,15,42,12.60
2020,04,14,15,43,12.60
2020,04,14,15,44,12.60
2020,04,14,15,45,12.60
2020,04,14,15,46,12.70
2020,04,14,15,47,12.70
2020,04,14,15,48,12.80
2020,04,14,15,49,12.80
2020,04,14,15,50,12.80
2020,04,14,15,51,12.80
2020,04,14,15,52,12.80
2020,04,14,15,53,12.80
2020,04,14,15,54,12.80
2020,04,14,15,55,12.80
2020,04,14,15,56,12.90
2020,04,14,15,57,12.90
2020,04,14,15,58,13.00
2020,04,14,15,59,13.00
2020,04,14,16,00,13.10
2020,04,14,16,01,13.10
2020,04,14,16,02,13.10
2020,04,14,16,03,13.10
2020,04,14,16,04,13.10
2020,04,14,16,05,13.10
2020,04,14,16,06,13.10
2020,04,14,16,07,13.10
2020,04,14,16,08,13.10
2020,04,14,16,09,13.10
2020,04,14,16,10,13.10
2020,04,14,16,11,13.20
2020,04,14,16,12,13.30
2020,04,14,16,13,13.30
2020,04,14,16,14,13.40
2020,04,14,16,15,13.40
2020,04,14,16,16,13.40
2020,04,14,16,17,13.40
2020,04,14,16,18,13.40
2020,04,14,16,19,13.50
2020,04,14,16,20,13.50
2020,04,14,16,21,13.50
2020,04,14,16,22,13.50
2020,04,14,16,23,13.50
2020,04,14,16,24,13.40
2020,04,14,16,25,13.30
2020,04,14,16,26,13.20
2020,04,14,16,27,13.20
2020,04,14,16,28,13.30
2020,04,14,16,29,13.40
2020,04,14,16,30,13.40
2020,04,14,16,31,13.30
2020,04,14,16,32,13.30
2020,04,14,16,33,13.30
2020,04,14,16,34,13.30
2020,04,14,16,35,13.40
2020,04,14,16,36,13.40
2020,04,14,16,37,13.40
2020,04,14,16,38,13.30
2020,04,14,16,39,13.30
2020,04,14,16,40,13.20
2020,04,14,16,41,13.30
2020,04,14,16,42,13.20
2020,04,14,16,43,13.20
2020,04,14,16,44,13.20
2020,04,14,16,45,13.20
2020,04,14,16,46,13.20
2020,04,14,16,47,13.20
2020,04,14,16,48,13.20
2020,04,14,16,49,13.30
2020,04,14,16,50,13.30
2020,04,14,16,51,13.40
2020,04,14,16,52,13.30
2020,04,14,16,53,13.30
2020,04,14,16,54,13.30
2020,04,14,16,55,13.30
2020,04,14,16,56,13.30
2020,04,14,16,57,13.20
2020,04,14,16,58,13.20
2020,04,14,16,59,13.10
2020,04,14,17,00,13.10
2020,04,14,17,01,13.10
2020,04,14,17,02,13.10
2020,04,14,17,03,13.10
2020,04,14,17,04,13.10
2020,04,14,17,05,13.20
2020,04,14,17,06,13.20
2020,04,14,17,07,13.30
2020,04,14,17,08,13.40
2020,04,14,17,09,13.30
2020,04,14,17,10,13.30
2020,04,14,17,11,13.20
2020,04,14,17,12,13.20
2020,04,14,17,13,13.30
2020,04,14,17,14,13.30
2020,04,14,17,15,13.30
2020,04,14,17,16,13.30
2020,04,14,17,17,13.30
2020,04,14,17,18,13.20
2020,04,14,17,19,13.20
2020,04,14,17,20,13.10
2020,04,14,17,21,13.10
2020,04,14,17,22,13.10
2020,04,14,17,23,13.10
2020,04,14,17,24,13.10
2020,04,14,17,25,13.10
2020,04,14,17,26,13.00